TimeMST,TemperatureF,Dew PointF,Humidity,Sea Level PressureIn,VisibilityMPH,Wind Direction,Wind SpeedMPH,Gust SpeedMPH,PrecipitationIn,Events,Conditions,WindDirDegrees,DateUTC
12:53 AM,32.0,17.1,54,30.11,10.0,NNW,5.8,-,N/A,,Clear,340,2012-02-18 07:53:00
1:53 AM,30.0,17.1,59,30.11,10.0,North,3.5,-,N/A,,Clear,360,2012-02-18 08:53:00
2:53 AM,23.0,15.1,72,30.14,10.0,Calm,Calm,-,N/A,,Clear,0,2012-02-18 09:53:00
3:53 AM,25.0,16.0,69,30.13,10.0,SE,5.8,-,N/A,,Clear,130,2012-02-18 10:53:00
4:53 AM,26.1,17.1,69,30.14,10.0,Calm,Calm,-,N/A,,Clear,0,2012-02-18 11:53:00
5:53 AM,23.0,15.1,72,30.16,10.0,ESE,3.5,-,N/A,,Clear,110,2012-02-18 12:53:00
6:53 AM,21.9,15.1,75,30.17,10.0,ESE,10.4,-,N/A,,Clear,120,2012-02-18 13:53:00
7:53 AM,26.1,16.0,66,30.17,10.0,ESE,8.1,-,N/A,,Clear,120,2012-02-18 14:53:00
8:53 AM,33.1,16.0,50,30.17,10.0,ESE,15.0,-,N/A,,Clear,120,2012-02-18 15:53:00
9:53 AM,36.0,17.1,46,30.13,10.0,SE,9.2,-,N/A,,Clear,130,2012-02-18 16:53:00
10:53 AM,39.9,16.0,38,30.11,10.0,SE,13.8,17.3,N/A,,Clear,140,2012-02-18 17:53:00
11:53 AM,42.1,16.0,35,30.07,10.0,SE,10.4,-,N/A,,Clear,140,2012-02-18 18:53:00
12:53 PM,45.0,16.0,31,30.03,10.0,Calm,Calm,-,N/A,,Clear,0,2012-02-18 19:53:00
1:53 PM,46.0,15.1,29,30.00,10.0,NW,4.6,-,N/A,,Clear,320,2012-02-18 20:53:00
2:53 PM,48.0,15.1,27,29.99,10.0,NNW,3.5,-,N/A,,Clear,340,2012-02-18 21:53:00
3:53 PM,48.0,16.0,28,29.95,10.0,NNW,3.5,-,N/A,,Clear,330,2012-02-18 22:53:00
4:53 PM,46.9,16.0,29,29.95,10.0,WNW,6.9,-,N/A,,Clear,290,2012-02-18 23:53:00
5:53 PM,41.0,15.8,36,29.94,10.0,WNW,6.9,-,N/A,,Clear,300,2012-02-19 00:53:00
6:53 PM,34.0,14.0,44,30.00,10.0,Calm,Calm,-,N/A,,Clear,0,2012-02-19 01:53:00
7:53 PM,33.1,14.0,46,29.98,10.0,Calm,Calm,-,N/A,,Clear,0,2012-02-19 02:53:00
8:53 PM,28.9,12.9,51,29.97,10.0,East,4.6,-,N/A,,Clear,90,2012-02-19 03:53:00
9:53 PM,33.1,17.1,52,29.93,10.0,East,3.5,-,N/A,,Clear,90,2012-02-19 04:53:00
10:53 PM,33.1,17.1,52,29.90,10.0,East,4.6,-,N/A,,Clear,90,2012-02-19 05:53:00
11:53 PM,33.1,18.0,54,29.88,10.0,Calm,Calm,-,N/A,,Clear,0,2012-02-19 06:53:00